Estación de Pirque

Ultimos registro cada 15 minutos 93
Estación Fecha / Hora Temperatura Humedad Lluvia Velocidad Dirección Radiación Presion
93 Pirque 09-05-2026 23:00 3 91,6 0 0 291 0,6 938,5
92 Pirque 09-05-2026 22:45 3 90,7 0 0 291 0,6 938,8
91 Pirque 09-05-2026 22:30 3,8 90,7 0 0 291 0,6 938,8
90 Pirque 09-05-2026 22:15 3,9 90,1 0 0 291 0,6 939
89 Pirque 09-05-2026 22:00 4,4 89,8 0 0 291 0,6 938,8
88 Pirque 09-05-2026 21:45 4,5 89,2 0 0 291 0,6 938,8
87 Pirque 09-05-2026 21:30 5 90,7 0 0 291 0,6 938,6
86 Pirque 09-05-2026 21:15 5,1 89,8 0 0 291 0,6 938,7
85 Pirque 09-05-2026 21:00 5,4 88,4 0 0 291 0,6 938,5
84 Pirque 09-05-2026 20:45 5,3 88,3 0 0 291 0,6 938,5
83 Pirque 09-05-2026 20:30 6,3 86,5 0 0 291 0,6 938,6
82 Pirque 09-05-2026 20:15 6,4 85,5 0 0 291 0,6 938,6
81 Pirque 09-05-2026 20:00 7,6 83,2 0 0 291 0,6 938,4
80 Pirque 09-05-2026 19:45 7,4 86 0 0 291 0,6 938,4
79 Pirque 09-05-2026 19:30 6,9 83,3 0 0 291 0,6 938,4
78 Pirque 09-05-2026 19:15 8,1 80 0 0 291 0,6 938,1
77 Pirque 09-05-2026 19:00 9,7 75,2 0 0 291 0,6 937,9
76 Pirque 09-05-2026 18:45 10 74 0 0 291 0,6 938
75 Pirque 09-05-2026 18:30 12 67,3 0 0 291 0,6 937,7
74 Pirque 09-05-2026 18:15 10,8 72,1 0 0 291 0,6 937,9
73 Pirque 09-05-2026 18:00 12,5 63,8 0 0 291 1,9 937,5
72 Pirque 09-05-2026 17:45 15,7 52,9 0 0 291 11,9 937,3
71 Pirque 09-05-2026 17:30 19,7 39,7 0 0 291 56,9 937,2
70 Pirque 09-05-2026 17:15 21,2 37,5 0 0 291 109,4 937,1
69 Pirque 09-05-2026 17:00 21,7 37,2 0 0 291 156,9 937,4
68 Pirque 09-05-2026 16:45 22,3 35,7 0 0 291 199,4 937,5
67 Pirque 09-05-2026 16:30 23,3 34,1 0 0 291 241,9 937,4
66 Pirque 09-05-2026 16:15 23,2 35,2 0 0 291 283,1 937,5
65 Pirque 09-05-2026 16:00 23 34,9 0 0 291 333,1 937,4
64 Pirque 09-05-2026 15:45 22,9 35,1 0 0 291 370,6 937,5
63 Pirque 09-05-2026 15:30 22,7 35,4 0 0 291 409,4 937,7
62 Pirque 09-05-2026 15:15 22,1 37,5 0 0 291 445,6 937,3
61 Pirque 09-05-2026 15:00 22,3 37 0 0 288 478,1 937,5
60 Pirque 09-05-2026 14:45 21,5 38,9 0 0 289 506,9 937,7
59 Pirque 09-05-2026 14:30 21,5 37,8 0 0 289 530,6 937,8
58 Pirque 09-05-2026 14:15 21,2 37,5 0 0 289 565,6 937,7
57 Pirque 09-05-2026 14:00 21,4 36 0 0 289 586,9 937,7
56 Pirque 09-05-2026 13:45 21,3 36,7 0 0 288 601,9 937,8
55 Pirque 09-05-2026 13:30 20,6 38,6 0 0 288 615,6 937,9
54 Pirque 09-05-2026 13:15 20,4 42,1 0 0 286 626,9 938,1
53 Pirque 09-05-2026 13:00 19,2 43,2 0 0 282 629,4 938,1
52 Pirque 09-05-2026 12:45 19 44,2 0 0 278 633,1 938,1
51 Pirque 09-05-2026 12:30 18,5 47,8 0 0 268 626,9 938,4
50 Pirque 09-05-2026 12:15 18,2 49,9 0 0 268 619,4 938,5
49 Pirque 09-05-2026 12:00 17,2 53,7 0 0 265 606,9 938,5
48 Pirque 09-05-2026 11:45 16,4 55,1 0 0 265 596,9 938,6
47 Pirque 09-05-2026 11:30 16,8 52 0 0 261 583,1 938,7
46 Pirque 09-05-2026 11:15 15,8 54,9 0 0 261 561,9 938,7
45 Pirque 09-05-2026 11:00 14,4 60,3 0 0 260 538,1 939,2
44 Pirque 09-05-2026 10:45 14,3 62,6 0 0 260 508,1 939,2
43 Pirque 09-05-2026 10:30 14,8 66 0 0 261 479,4 939,3
42 Pirque 09-05-2026 10:15 13,2 68,2 0 0 261 443,1 939,4
41 Pirque 09-05-2026 10:00 12,8 68,9 0 0 260 405,6 939,3
40 Pirque 09-05-2026 09:45 13,1 70,8 0 0 260 366,9 939,3
39 Pirque 09-05-2026 09:30 11,3 76,2 0 0 260 321,9 939,3
38 Pirque 09-05-2026 09:15 10,3 79,9 0 0 260 280,6 939,1
37 Pirque 09-05-2026 09:00 9,4 86,1 0 0 260 240,6 939,3
36 Pirque 09-05-2026 08:45 5,6 93,5 0 0 260 199,4 939,4
35 Pirque 09-05-2026 08:30 3,4 95,3 0 0 260 159,4 939,6
34 Pirque 09-05-2026 08:15 1,9 95,8 0 0 260 124,4 939,3
33 Pirque 09-05-2026 08:00 0,3 96,9 0 0 260 55,6 939,2
32 Pirque 09-05-2026 07:45 -1,3 96,5 0 0 260 10,6 939,1
31 Pirque 09-05-2026 07:30 -1,2 96,5 0 0 260 4,4 938,8
30 Pirque 09-05-2026 07:15 -1,1 96,4 0 0 260 0,6 938,9
29 Pirque 09-05-2026 07:00 -1,5 96,3 0 0 260 0,6 938,9
28 Pirque 09-05-2026 06:45 -0,8 96,5 0 0 260 0,6 938,9
27 Pirque 09-05-2026 06:30 -0,5 96 0 0 260 0,6 938,9
26 Pirque 09-05-2026 06:15 -0,7 96,4 0 0 260 0,6 938,6
25 Pirque 09-05-2026 06:00 -0,9 96,4 0 0 260 0,6 938,4
24 Pirque 09-05-2026 05:45 -1 96,1 0 0 260 0,6 938,5
23 Pirque 09-05-2026 05:30 -0,9 95,9 0 0 260 0,6 938,4
22 Pirque 09-05-2026 05:15 -0,3 96 0 0 260 0,6 938,6
21 Pirque 09-05-2026 05:00 0,2 96 0 0 260 0,6 938,7
20 Pirque 09-05-2026 04:45 0 95,7 0 0 260 0,6 938,4
19 Pirque 09-05-2026 04:30 0,5 95,5 0 0 260 0,6 938,4
18 Pirque 09-05-2026 04:15 0,6 95,8 0 0 260 0,6 938,5
17 Pirque 09-05-2026 04:00 0,6 95,6 0 0 260 0,6 938,7
16 Pirque 09-05-2026 03:45 0,3 95,7 0 0 260 0,6 938,7
15 Pirque 09-05-2026 03:30 0 95,2 0 0 260 0,6 938,7
14 Pirque 09-05-2026 03:15 1 95,1 0 0 260 0,6 938,8
13 Pirque 09-05-2026 03:00 1,2 95,2 0 0 260 0,6 939
12 Pirque 09-05-2026 02:45 1,3 95,2 0 0 260 0,6 939,1
11 Pirque 09-05-2026 02:30 1,3 94,9 0 0 260 0,6 939,3
10 Pirque 09-05-2026 02:15 1,5 94,7 0 0 260 0,6 939,4
9 Pirque 09-05-2026 02:00 2,1 94,6 0 0 260 0,6 939,4
8 Pirque 09-05-2026 01:45 2 94,6 0 0 260 0,6 939,5
7 Pirque 09-05-2026 01:30 1,8 94,9 0 0 260 0,6 939,3
6 Pirque 09-05-2026 01:15 2,3 94,4 0 0 260 0,6 939,6
5 Pirque 09-05-2026 01:00 1,7 94,1 0 0 260 0,6 939,6
4 Pirque 09-05-2026 00:45 2 94,2 0 0 260 0,6 939,7
3 Pirque 09-05-2026 00:30 1,6 93,8 0 0 260 0,6 939,7
2 Pirque 09-05-2026 00:15 1,9 93,4 0 0 260 0,6 939,9
1 Pirque 09-05-2026 00:00 2,2 92,9 0 0 260 0,6 940,2